Location: Gleizolles
(44.4833°N, 6.7667°E)
Time: 10:49:39
(UTC+00:00)

Cosmos 1954 Rocket - Pass Details

Date: 09 April 2020
Orbit: 752 x 781 km, 74.1° (Epoch: 03 June)

Event Time Altitude Azimuth Distance (km) Brightness Sun altitude
Rises 19:26:56 0° 190° (S) 3,227 7.1 -13.7°
Reaches altitude 10° 19:29:19 10° 187° (S) 2,300 6.3 -14.0°
Maximum altitude 19:34:29 64° 107° (ESE) 846 3.9 -14.9°
Drops below altitude 10° 19:39:37 10° 27° (NNE) 2,298 6.5 -15.7°
Sets 19:42:00 0° 24° (NNE) 3,224 7.3 -16.0°
